• In Deutschland
  • Länderverzeichnis
  • Für 7 Tage
  • Wassertemperatur
  • Satellitenkarten
  • Wetterkarte
  • Widgets
  • user-avatar
    Anmelden

    Stündliche Wetter Lindlar

    Heute, 17 Oktober, Dienstag

    Zeit Temperatur Niederschläge Wind Luftdruck Luftfeuchtigkeit
    00:00 +15°C° 0 mm 2 m/S 744 mmHg 77%
    01:00 +15°C° 0 mm 2 m/S 744 mmHg 79%
    02:00 +14°C° 0 mm 2 m/S 744 mmHg 81%
    03:00 +14°C° 0 mm 2 m/S 744 mmHg 83%
    04:00 +13°C° 0 mm 1 m/S 744 mmHg 85%
    05:00 +13°C° 0 mm 1 m/S 744 mmHg 87%
    06:00 +13°C° 0 mm 1 m/S 744 mmHg 89%
    07:00 +14°C° 0 mm 1 m/S 744 mmHg 84%
    08:00 +16°C° 0 mm 1 m/S 744 mmHg 79%
    09:00 +19°C° 0 mm 1 m/S 745 mmHg 74%
    10:00 +20°C° 0 mm 1 m/S 744 mmHg 70%
    11:00 +21°C° 0 mm 1 m/S 744 mmHg 67%
    12:00 +22°C° 0 mm 1 m/S 744 mmHg 64%
    13:00 +22°C° 0 mm 1 m/S 743 mmHg 65%
    14:00 +22°C° 0 mm 1 m/S 743 mmHg 67%
    15:00 +22°C° 0 mm 1 m/S 743 mmHg 69%
    16:00 +20°C° 0 mm 1 m/S 742 mmHg 74%
    17:00 +19°C° 0 mm 1 m/S 742 mmHg 79%
    18:00 +16°C° 0 mm 1 m/S 742 mmHg 85%
    19:00 +16°C° 0 mm 1 m/S 742 mmHg 86%
    20:00 +15°C° 0 mm 1 m/S 742 mmHg 87%
    21:00 +15°C° 0 mm 1 m/S 741 mmHg 88%
    22:00 +14°C° 0 mm 1 m/S 741 mmHg 89%
    23:00 +14°C° 0 mm 1 m/S 741 mmHg 90%

    Morgen, 18 Oktober, Mittwoch

    Zeit Temperatur Niederschläge Wind Luftdruck Luftfeuchtigkeit
    00:00 +14°C° 0 mm 1 m/S 741 mmHg 90%
    01:00 +14°C° 0 mm 1 m/S 740 mmHg 90%
    02:00 +13°C° 0 mm 1 m/S 740 mmHg 91%
    03:00 +13°C° 0 mm 1 m/S 740 mmHg 91%
    04:00 +13°C° 0 mm 1 m/S 739 mmHg 91%
    05:00 +12°C° 0 mm 1 m/S 739 mmHg 90%
    06:00 +12°C° 0 mm 1 m/S 739 mmHg 89%
    07:00 +13°C° 0 mm 2 m/S 739 mmHg 82%
    08:00 +15°C° 0 mm 2 m/S 739 mmHg 74%
    09:00 +16°C° 0 mm 2 m/S 739 mmHg 67%
    10:00 +17°C° 0 mm 2 m/S 739 mmHg 62%
    11:00 +19°C° 0 mm 2 m/S 739 mmHg 57%
    12:00 +20°C° 0 mm 2 m/S 738 mmHg 53%
    13:00 +20°C° 0 mm 2 m/S 738 mmHg 55%
    14:00 +20°C° 0 mm 2 m/S 738 mmHg 58%
    15:00 +19°C° 0 mm 2 m/S 738 mmHg 60%
    16:00 +18°C° 0 mm 2 m/S 738 mmHg 67%
    17:00 +16°C° 0 mm 1 m/S 738 mmHg 73%
    18:00 +14°C° 0 mm 1 m/S 738 mmHg 80%
    19:00 +14°C° 0 mm 1 m/S 738 mmHg 82%
    20:00 +13°C° 0 mm 2 m/S 738 mmHg 84%
    21:00 +13°C° 0 mm 2 m/S 738 mmHg 86%
    22:00 +13°C° 0 mm 2 m/S 738 mmHg 87%
    23:00 +13°C° 0 mm 2 m/S 738 mmHg 88%

    übermorgen, 19 Oktober, Donnerstag

    Zeit Temperatur Niederschläge Wind Luftdruck Luftfeuchtigkeit
    00:00 +12°C° 0 mm 2 m/S 738 mmHg 88%
    01:00 +12°C° 0 mm 2 m/S 737 mmHg 89%
    02:00 +12°C° 0 mm 2 m/S 737 mmHg 90%
    03:00 +12°C° 0 mm 2 m/S 737 mmHg 90%
    04:00 +12°C° 0 mm 2 m/S 737 mmHg 90%
    05:00 +12°C° 0 mm 2 m/S 737 mmHg 90%
    06:00 +10°C° 0 mm 2 m/S 737 mmHg 90%
    07:00 +13°C° 0 mm 2 m/S 737 mmHg 83%
    08:00 +15°C° 0 mm 2 m/S 737 mmHg 76%
    09:00 +16°C° 0 mm 3 m/S 737 mmHg 69%
    10:00 +18°C° 0 mm 3 m/S 737 mmHg 65%
    11:00 +19°C° 0 mm 4 m/S 737 mmHg 61%
    12:00 +20°C° 0 mm 4 m/S 737 mmHg 58%
    13:00 +20°C° 0 mm 4 m/S 736 mmHg 59%
    14:00 +20°C° 0 mm 3 m/S 736 mmHg 61%
    15:00 +20°C° 0 mm 3 m/S 736 mmHg 63%
    16:00 +18°C° 0 mm 3 m/S 736 mmHg 66%
    17:00 +17°C° 0 mm 3 m/S 736 mmHg 68%
    18:00 +16°C° 0 mm 3 m/S 736 mmHg 70%
    19:00 +16°C° 0 mm 3 m/S 736 mmHg 70%
    20:00 +16°C° 0 mm 3 m/S 736 mmHg 69%
    21:00 +15°C° 0 mm 4 m/S 735 mmHg 69%
    22:00 +15°C° 0,1 mm 4 m/S 735 mmHg 70%
    23:00 +15°C° 0,1 mm 4 m/S 735 mmHg 71%

    20 Oktober, Freitag

    Zeit Temperatur Niederschläge Wind Luftdruck Luftfeuchtigkeit
    00:00 +14°C° 0,1 mm 4 m/S 735 mmHg 72%
    01:00 +14°C° 0 mm 4 m/S 735 mmHg 74%
    02:00 +14°C° 0 mm 4 m/S 735 mmHg 76%
    03:00 +14°C° 0 mm 5 m/S 735 mmHg 78%
    04:00 +14°C° 0,2 mm 5 m/S 735 mmHg 79%
    05:00 +14°C° 0,2 mm 5 m/S 735 mmHg 81%
    06:00 +14°C° 0,2 mm 5 m/S 735 mmHg 83%
    07:00 +14°C° 0,1 mm 6 m/S 735 mmHg 80%
    08:00 +14°C° 0,1 mm 6 m/S 736 mmHg 77%
    09:00 +15°C° 0,1 mm 6 m/S 737 mmHg 75%
    10:00 +15°C° 0 mm 6 m/S 737 mmHg 70%
    11:00 +16°C° 0 mm 6 m/S 737 mmHg 65%
    12:00 +16°C° 0 mm 6 m/S 738 mmHg 60%
    13:00 +16°C° 0 mm 5 m/S 738 mmHg 62%
    14:00 +16°C° 0 mm 5 m/S 738 mmHg 63%
    15:00 +17°C° 0 mm 4 m/S 738 mmHg 65%
    16:00 +15°C° 0 mm 4 m/S 738 mmHg 71%
    17:00 +14°C° 0 mm 3 m/S 738 mmHg 78%
    18:00 +13°C° 0 mm 3 m/S 738 mmHg 84%
    19:00 +13°C° 0,1 mm 3 m/S 738 mmHg 85%
    20:00 +14°C° 0,1 mm 3 m/S 738 mmHg 86%
    21:00 +14°C° 0,1 mm 3 m/S 738 mmHg 87%
    22:00 +14°C° 0,2 mm 3 m/S 738 mmHg 86%
    23:00 +14°C° 0,2 mm 3 m/S 737 mmHg 86%

    21 Oktober, Samstag

    Zeit Temperatur Niederschläge Wind Luftdruck Luftfeuchtigkeit
    00:00 +14°C° 0,2 mm 3 m/S 737 mmHg 85%
    01:00 +14°C° 0 mm 3 m/S 737 mmHg 85%
    02:00 +14°C° 0 mm 3 m/S 736 mmHg 84%
    03:00 +14°C° 0 mm 3 m/S 736 mmHg 84%
    04:00 +14°C° 0,4 mm 4 m/S 736 mmHg 85%
    05:00 +14°C° 0,4 mm 4 m/S 736 mmHg 86%
    06:00 +14°C° 0,4 mm 4 m/S 736 mmHg 87%
    07:00 +14°C° 1,3 mm 4 m/S 736 mmHg 88%
    08:00 +14°C° 1,3 mm 4 m/S 736 mmHg 88%
    09:00 +15°C° 1,3 mm 4 m/S 736 mmHg 89%
    10:00 +15°C° 0,7 mm 4 m/S 736 mmHg 88%
    11:00 +15°C° 0,7 mm 4 m/S 736 mmHg 87%
    12:00 +15°C° 0,7 mm 5 m/S 736 mmHg 86%
    13:00 +14°C° 0,6 mm 4 m/S 736 mmHg 83%
    14:00 +14°C° 0,6 mm 4 m/S 736 mmHg 80%
    15:00 +14°C° 0,6 mm 4 m/S 736 mmHg 77%
    16:00 +13°C° 0 mm 4 m/S 737 mmHg 77%
    17:00 +12°C° 0 mm 4 m/S 737 mmHg 77%
    18:00 +12°C° 0 mm 4 m/S 737 mmHg 78%
    19:00 +11°C° 0 mm 4 m/S 737 mmHg 78%
    20:00 +11°C° 0 mm 4 m/S 737 mmHg 79%
    21:00 +10°C° 0 mm 4 m/S 737 mmHg 80%
    22:00 +10°C° 0 mm 4 m/S 737 mmHg 79%
    23:00 +10°C° 0 mm 4 m/S 737 mmHg 79%

    22 Oktober, Sonntag

    Zeit Temperatur Niederschläge Wind Luftdruck Luftfeuchtigkeit
    00:00 +10°C° 0 mm 4 m/S 737 mmHg 78%
    01:00 +8°C° 0 mm 5 m/S 737 mmHg 79%
    02:00 +8°C° 0 mm 5 m/S 737 mmHg 79%
    03:00 +7°C° 0 mm 5 m/S 736 mmHg 79%
    04:00 +7°C° 0 mm 5 m/S 736 mmHg 79%
    05:00 +7°C° 0 mm 5 m/S 736 mmHg 80%
    06:00 +7°C° 0 mm 5 m/S 737 mmHg 80%
    07:00 +7°C° 0 mm 5 m/S 737 mmHg 77%
    08:00 +8°C° 0 mm 6 m/S 737 mmHg 74%
    09:00 +8°C° 0 mm 6 m/S 737 mmHg 71%
    10:00 +9°C° 0 mm 6 m/S 737 mmHg 69%
    11:00 +9°C° 0 mm 6 m/S 737 mmHg 67%
    12:00 +9°C° 0 mm 7 m/S 737 mmHg 65%
    13:00 +9°C° 0,1 mm 7 m/S 737 mmHg 65%
    14:00 +9°C° 0,1 mm 6 m/S 737 mmHg 66%
    15:00 +9°C° 0,1 mm 6 m/S 737 mmHg 67%
    16:00 +9°C° 0,4 mm 6 m/S 737 mmHg 71%
    17:00 +8°C° 0,4 mm 6 m/S 738 mmHg 76%
    18:00 +8°C° 0,4 mm 6 m/S 738 mmHg 80%
    19:00 +8°C° 0,4 mm 6 m/S 738 mmHg 81%
    20:00 +8°C° 0,4 mm 5 m/S 738 mmHg 81%
    21:00 +8°C° 0,4 mm 5 m/S 738 mmHg 82%
    22:00 +8°C° 0,1 mm 5 m/S 738 mmHg 82%
    23:00 +8°C° 0,1 mm 5 m/S 739 mmHg 82%
    Mehr zeigen